Regional Weather Roundup
Issued by NWS

Home | Current Version | Previous Version | Graphics & Text | Print | Product List | Glossary On
Versions: 1 2 3 4 5 6 7 8 9 10 11 12 13 14 15 16 17 18 19 20 21 22 23 24 25 26 27 28 29 30 31 32 33 34 35 36 37 38 39 40 41 42 43 44 45 46 47 48 49 50
000
ASUS44 KMEG 150910
RWRTN
TENNESSEE HOURLY STATE WEATHER ROUNDUP
NATIONAL WEATHER SERVICE MEMPHIS TN
300 AM CST FRI DEC 15 2017

TNZ002-004-019-021-049-052-054-088>092-151000-
WEST TENNESSEE

CITY           SKY/WX    TMP DP  RH WIND       PRES   REMARKS
MEMPHIS INTL   CLEAR     31  25  78 CALM      30.13F
NWS MEMPHIS      N/A     27 N/A N/A MISG        N/A
JACKSON        MOCLDY    27  25  92 CALM      30.13S
DYERSBURG      CLOUDY    31  27  85 CALM      30.14S
SOMERVILLE     CLOUDY    28  27  93 CALM      30.11S
COVINGTON      CLOUDY    27  25  93 CALM      30.14S
UNION CITY     CLOUDY    32  27  80 CALM      30.13R
BOLIVAR        MOCLDY    27  25  93 CALM      30.11F
PARIS          CLOUDY    32  23  69 CALM      30.10S
HUNTINGDON     CLOUDY    32  25  74 CALM      30.10S
LEXINGTON      CLOUDY    28  25  86 CALM      30.11S
SELMER         MOCLDY    27  23  86 CALM      30.09F
SAVANNAH       CLEAR     23  23 100 CALM      30.10F
$$

TNZ008-025-027-028-033-062-065-066-151000-
NORTH MIDDLE TENNESSEE

CITY           SKY/WX    TMP DP  RH WIND       PRES   REMARKS
NASHVILLE      CLOUDY    33  21  61 NW6       30.09S WCI  28
PORTLAND       CLOUDY    30  23  74 NW3       30.06S
CLARKSVILLE    CLOUDY    31  21  66 W6        30.10S WCI  25
SMYRNA         CLOUDY    32  24  72 NW8       30.10S WCI  25
COOKEVILLE     CLOUDY    28  27  93 CALM      30.03S
GALLATIN       CLOUDY    32  23  69 W3        30.10S
CROSSVILLE     PTCLDY    25  21  85 W3        29.98F
$$

TNZ061-075-076-078-094-096-097-151000-
SOUTH MIDDLE TENNESSEE

CITY           SKY/WX    TMP DP  RH WIND       PRES   REMARKS
FAYETTEVILLE   CLEAR     27  23  86 CALM      30.07R
TULLAHOMA      CLOUDY    23  19  86 CALM      30.05R
WINCHESTER     CLEAR     27  21  80 CALM      30.07R
MCMINNVILLE    CLOUDY    23  21  93 CALM      30.04F
COLUMBIA       CLOUDY    25  23  93 CALM      30.08R
SHELBYVILLE    CLOUDY    27  25  93 CALM      30.08S
$$

TNZ017-018-042-046-047-151000-
NORTHEAST TENNESSEE

CITY           SKY/WX    TMP DP  RH WIND       PRES   REMARKS
TRI CITIES     CLEAR     22  22 100 CALM      29.99S
ELIZABETHTON   PTCLDY    25  23  93 CALM      29.99F
$$

TNZ012-013-036-069-073-074-151000-
CENTRAL EAST TENNESSEE

CITY           SKY/WX    TMP DP  RH WIND       PRES   REMARKS
KNOXVILLE      MOCLDY    29  27  92 CALM      30.02S
OAK RIDGE      MOCLDY    31  27  85 CALM      30.03F
DOWNTOWN KNOXV   N/A     30  30 100 CALM      30.04S FOG
GATLINBURG     MOCLDY    27  25  93 CALM      30.02S
MORRISTOWN     CLOUDY    27  25  93 CALM      29.99F
JACKSBORO      CLOUDY    32  28  86 CALM      30.04F
$$

TNZ083-085-099-151000-
SOUTHEAST TENNESSEE

CITY           SKY/WX    TMP DP  RH WIND       PRES   REMARKS
CHATTANOOGA    PTCLDY    33  26  75 W5        30.06R WCI  29
DAYTON         SUNNY     25  25 100 CALM      30.04S
$$

SKY/WX REPORTED AS FAIR MEANS FEW OR NO CLOUDS BELOW
12 THOUSAND FEET.





USA.gov is the U.S. government's official web portal to all federal, state and local government web resources and services.